カタログに戻る

YAOGAN-36 03A

運用中軍事VLEO
NORAD 54372·PAYLOAD·🇨🇳 China

打ち上げ Nov 27, 2022 から Xichang Satellite Launch Center

Loading…

次のパス (今後24時間)

TLE

最新Source: Space-Track

元期: Sep 14, 2026, 14:57 UTC

1 54372U 22160A   26257.62326645  .00012467  00000-0  33395-3 0  9994
2 54372  34.9995 109.2931 0003102  11.7329 348.3462 15.37167118211976

AllMySatでYAOGAN-36 03Aをリアルタイム追跡

Download on the App Store